[[[{"header":{"parameterUnit":"kt","parameterCategory":2,"dx":1,"dy":1,"la1":30.253999710083008,"la2":30.299108505249023,"lo1":-89.0895004272461,"lo2":-89.04439544677734,"nx":28,"ny":28,"refTime":"2022-10-07T21:00:00:Z","depth":0,"parameterNumber":1,"parameterNumberName":"U-component_of_WINDS"},"data":[0.7419,0.7504,0.7507,0.7608,0.7629,0.7699,0.7726,0.7763,0.7793,0.7882,0.7934,0.7951,0.7987,0.8054,0.8115,0.8122,0.8147,0.8174,0.8178,0.8048,0.8031,0.8014,0.7992,0.818,0.818,0.8311,0.8312,0.8313,0.7326,0.7346,0.74,0.7454,0.7501,0.7477,0.7521,0.7563,0.7628,0.7667,0.7718,0.7798,0.7863,0.7891,0.7956,0.8,0.7994,0.8018,0.8015,0.8021,0.7883,0.7859,0.8021,0.8021,0.8021,0.8021,0.8021,0.8021,0.7158,0.7209,0.7242,0.73,0.7329,0.7367,0.7418,0.7433,0.7489,0.7552,0.7549,0.7624,0.7667,0.7748,0.7778,0.784,0.7816,0.7844,0.7851,0.7858,0.7865,0.7676,0.7852,0.7851,0.7851,0.785,0.785,0,0.7036,0.7035,0.7085,0.7138,0.718,0.7223,0.7262,0.7294,0.7297,0.7343,0.741,0.7451,0.7533,0.76,0.7662,0.7688,0.7671,0.767,0.769,0.7691,0.7686,0.769,0.7464,0.7665,0.7663,0.7662,0.7661,0.7661,0.6866,0.6924,0.6961,0.6997,0.7018,0.7077,0.7113,0.711,0.7149,0.72,0.7248,0.7313,0.7365,0.7477,0.75,0.7563,0.7556,0.7631,0.7565,0.7565,0.7558,0.7554,0.7561,0.7644,0.7646,0.7648,0.7649,0,0.6771,0.6774,0.6866,0.6897,0.6907,0.697,0.6998,0.7051,0.706,0.7135,0.7153,0.717,0.7238,0.7248,0.733,0.7333,0.7445,0.7435,0.7429,0.7428,0.7498,0.7491,0.7719,0.775,0.7555,0.7557,0.7558,0,0.6627,0.6705,0.6706,0.6759,0.6846,0.6838,0.6926,0.6943,0.6975,0.7034,0.7013,0.7069,0.7072,0.7132,0.7137,0.7229,0.7245,0.7253,0.7254,0.7255,0.7254,0.7277,0.7268,0.7252,0.725,0.7249,0.7248,0,0.6477,0.6568,0.6653,0.6675,0.6716,0.6758,0.6778,0.6814,0.685,0.6899,0.6923,0.6982,0.7015,0.7063,0.7068,0.7023,0.7181,0.712,0.719,0.719,0.7224,0.7222,0.7422,0.7247,0.7247,0.7246,0.7246,0,0.6361,0.6405,0.6529,0.6562,0.6586,0.6644,0.6698,0.675,0.679,0.6795,0.6834,0.6821,0.6901,0.684,0.6951,0.6891,0.6925,0.694,0.6946,0.6953,0.6884,0.6996,0.7184,0.7205,0.6961,0.6959,0.6957,0,0.6188,0.6313,0.6305,0.6425,0.6483,0.6452,0.6518,0.6552,0.6564,0.6618,0.6633,0.6696,0.6652,0.6673,0.6727,0.6746,0.6825,0.6735,0.682,0.6823,0.6809,0.6983,0.7008,0.7142,0.6927,0.693,0.6932,0,0.6054,0.6098,0.612,0.6143,0.6185,0.6234,0.6309,0.6367,0.6403,0.6445,0.6509,0.6599,0.6569,0.6604,0.66,0.6656,0.6772,0.6617,0.6618,0.6645,0.6912,0.6935,0.6958,0.6757,0.6761,0.6764,0.6908,0,0.5878,0.594,0.5998,0.605,0.6088,0.6163,0.6165,0.6207,0.6196,0.6206,0.6301,0.6333,0.6396,0.6423,0.6415,0.6539,0.652,0.6488,0.6429,0.6543,0.659,0.661,0.6357,0.6355,0.6354,0.6353,0,0,0.5712,0.5799,0.5788,0.5857,0.5888,0.5854,0.5933,0.5962,0.6019,0.6043,0.601,0.614,0.6168,0.6283,0.6319,0.6345,0.6369,0.6328,0.6488,0.6503,0.6517,0.6568,0.6588,0.635,0.635,0.6349,0.6349,0,0.5647,0.5669,0.5745,0.5772,0.581,0.5815,0.5834,0.5868,0.5877,0.5968,0.5941,0.5999,0.6103,0.6136,0.6167,0.6314,0.6292,0.6334,0.641,0.6474,0.6491,0.6506,0.6559,0.6578,0.6345,0.6346,0.6346,0,0.5515,0.5537,0.5573,0.564,0.5666,0.5727,0.5665,0.5732,0.5779,0.5741,0.5832,0.5851,0.5896,0.6003,0.6052,0.6024,0.6223,0.6161,0.617,0.6176,0.6238,0.6258,0.6276,0.6038,0.6037,0.6036,0,0,0.5459,0.5515,0.5537,0.5626,0.5644,0.5652,0.5685,0.5677,0.5714,0.573,0.5752,0.5793,0.5854,0.5894,0.5951,0.6068,0.6078,0.6122,0.6137,0.6149,0.6161,0.6226,0.6246,0.6031,0.6031,0.6031,0,0,0.5433,0.546,0.5441,0.5544,0.5579,0.5609,0.5665,0.5644,0.5694,0.5686,0.568,0.569,0.5791,0.5811,0.5754,0.5931,0.5872,0.5886,0.5913,0.5931,0.5946,0.5939,0.5696,0,0,0,0,0,0.5366,0.5456,0.5439,0.5456,0.5542,0.5618,0.5629,0.5623,0.5581,0.5626,0.5642,0.5615,0.5779,0.5728,0.5748,0.5812,0.5977,0.5987,0.5996,0.6059,0.6078,0.6094,0,0,0,0,0,0,0.5373,0.5394,0.5436,0.547,0.5489,0.5615,0.5542,0.5543,0.5576,0.5569,0.5613,0.5616,0.5615,0.5718,0.5736,0.5796,0.569,0.5981,0.5989,0.5996,0.6065,0.6081,0.6094,0,0,0,0,0,0.5378,0.5395,0.5533,0.5469,0.5485,0.5499,0.5538,0.5539,0.5565,0.5589,0.5592,0.5557,0.5617,0.5632,0.5728,0.5788,0.5678,0.5685,0.5986,0.5993,0.5998,0.6073,0,0,0,0,0,0,0.5382,0.5397,0.5537,0.5542,0.5433,0.5491,0.55,0.5535,0.5582,0.5586,0.5532,0.5526,0.562,0.5631,0.5642,0.5786,0.5668,0.5675,0.5679,0.5991,0.5996,0.6001,0,0,0,0,0,0,0.5388,0.5402,0.5539,0.5494,0.5494,0.5485,0.5493,0.5574,0.5583,0.5523,0.5519,0.5529,0.5604,0.563,0.5639,0.5767,0.566,0.5667,0.5671,0.5674,0.5995,0.5999,0,0,0,0,0,0,0.5394,0.5406,0.5493,0.5493,0.5493,0.5549,0.5557,0.5647,0.554,0.5522,0.5531,0.5527,0.5605,0.5613,0.5637,0.5761,0.5765,0.566,0.5665,0.5668,0.567,0,0,0,0,0,0,0,0.5399,0.5321,0.5506,0.5492,0.5491,0.5588,0.559,0.5591,0.5539,0.5536,0.5532,0.5528,0.5623,0.563,0.5638,0.5757,0,0,0.566,0.5663,0,0,0,0,0,0,0,0,0.5316,0.5319,0.5506,0.5508,0.5509,0.5589,0.559,0.5591,0.5539,0.5536,0.5533,0.553,0.5625,0.5631,0.5637,0,0,0,0,0,0,0,0,0,0,0,0,0,0,0,0.5507,0.5507,0,0.5589,0.559,0.5591,0.5538,0.5536,0.5533,0.5531,0.5627,0.5631,0.5636,0,0,0,0,0,0,0,0,0,0,0,0,0,0,0,0,0,0,0,0,0,0,0,0,0,0,0,0,0,0,0,0,0,0,0,0,0,0,0,0,0,0,0,0,0,0,0,0,0,0,0,0,0,0,0,0,0,0,0,0,0,0,0,0,0,0,0,0,0]}],[{"header":{"parameterUnit":"kt","parameterCategory":2,"dx":1,"dy":1,"la1":30.253999710083008,"la2":30.299108505249023,"lo1":-89.0895004272461,"lo2":-89.04439544677734,"nx":28,"ny":28,"refTime":"2022-10-07T21:00:00:Z","depth":0,"parameterNumber":2,"parameterNumberName":"V-component_of_WINDS"},"data":[-2.2779,-2.2758,-2.2777,-2.2761,-2.2775,-2.2768,-2.2771,-2.2777,-2.2786,-2.278,-2.2779,-2.2795,-2.2812,-2.2815,-2.2816,-2.2823,-2.2821,-2.2802,-2.2813,-2.2886,-2.2897,-2.2908,-2.2914,-2.2801,-2.2801,-2.2735,-2.2734,-2.2734,-2.2834,-2.2847,-2.2844,-2.2854,-2.2851,-2.2882,-2.2892,-2.2888,-2.288,-2.2891,-2.2891,-2.2887,-2.2885,-2.2909,-2.291,-2.2901,-2.2915,-2.29,-2.2901,-2.2903,-2.2982,-2.2988,-2.2889,-2.2889,-2.2889,-2.2889,-2.2889,-2.2889,-2.2938,-2.2925,-2.2941,-2.2938,-2.2947,-2.2953,-2.2944,-2.2963,-2.296,-2.2964,-2.2986,-2.2977,-2.2992,-2.3002,-2.3009,-2.3003,-2.3023,-2.3012,-2.3009,-2.3005,-2.3,-2.3093,-2.3005,-2.3005,-2.3005,-2.3005,-2.3006,0,-2.302,-2.3036,-2.3034,-2.3037,-2.3036,-2.304,-2.3047,-2.3041,-2.3081,-2.3076,-2.3072,-2.3072,-2.3072,-2.307,-2.3075,-2.3085,-2.3115,-2.312,-2.3112,-2.3101,-2.3091,-2.3096,-2.3224,-2.3122,-2.3123,-2.3123,-2.3124,-2.3124,-2.3126,-2.3108,-2.3133,-2.3129,-2.3137,-2.313,-2.313,-2.3166,-2.3163,-2.3177,-2.3163,-2.3161,-2.3161,-2.315,-2.3172,-2.3172,-2.3186,-2.3145,-2.3186,-2.3177,-2.3185,-2.3186,-2.3184,-2.3136,-2.3134,-2.3133,-2.3132,0,-2.3184,-2.3213,-2.3191,-2.3217,-2.3223,-2.3202,-2.3225,-2.3212,-2.3233,-2.3218,-2.3217,-2.3248,-2.3242,-2.3271,-2.327,-2.3285,-2.3252,-2.3266,-2.3248,-2.3252,-2.3218,-2.3221,-2.3104,-2.309,-2.3208,-2.3207,-2.3206,0,-2.3286,-2.326,-2.3305,-2.329,-2.3264,-2.33,-2.3273,-2.3287,-2.3299,-2.3288,-2.3327,-2.3316,-2.3355,-2.3348,-2.337,-2.3348,-2.3348,-2.3358,-2.3364,-2.3354,-2.3353,-2.3352,-2.3357,-2.3379,-2.3379,-2.338,-2.338,0,-2.3373,-2.3367,-2.3343,-2.3346,-2.3371,-2.3359,-2.3369,-2.3382,-2.3381,-2.3384,-2.3383,-2.3384,-2.3384,-2.3384,-2.3412,-2.3439,-2.3386,-2.3428,-2.3396,-2.3395,-2.3381,-2.3381,-2.3272,-2.3381,-2.3381,-2.3381,-2.3381,0,-2.3459,-2.3462,-2.3423,-2.3445,-2.3441,-2.3425,-2.3429,-2.3422,-2.3433,-2.3446,-2.3448,-2.3477,-2.346,-2.35,-2.3477,-2.3504,-2.3502,-2.351,-2.3508,-2.3507,-2.3551,-2.3485,-2.3378,-2.3367,-2.3508,-2.3509,-2.351,0,-2.3551,-2.352,-2.3551,-2.3512,-2.3502,-2.3547,-2.353,-2.3538,-2.3555,-2.3548,-2.3566,-2.3557,-2.3593,-2.3594,-2.3579,-2.3596,-2.3561,-2.3602,-2.3591,-2.359,-2.3586,-2.3489,-2.3465,-2.3398,-2.3524,-2.3523,-2.3522,0,-2.3626,-2.3656,-2.3647,-2.3652,-2.3669,-2.366,-2.364,-2.364,-2.3634,-2.3639,-2.3623,-2.3611,-2.3638,-2.3639,-2.3662,-2.3644,-2.3586,-2.3675,-2.3676,-2.3658,-2.3533,-2.3512,-2.35,-2.3605,-2.3604,-2.3602,-2.3533,0,-2.375,-2.3737,-2.3714,-2.3722,-2.372,-2.3697,-2.3728,-2.3721,-2.3744,-2.3761,-2.3738,-2.3751,-2.3749,-2.3743,-2.3765,-2.3715,-2.3728,-2.3756,-2.3796,-2.3732,-2.3709,-2.37,-2.3827,-2.3828,-2.3829,-2.383,0,0,-2.383,-2.3813,-2.3847,-2.3829,-2.3828,-2.3874,-2.3847,-2.3852,-2.386,-2.3859,-2.3882,-2.3866,-2.3875,-2.3844,-2.3826,-2.3825,-2.3819,-2.3839,-2.3762,-2.3754,-2.3747,-2.3723,-2.3713,-2.3832,-2.3833,-2.3833,-2.3833,0,-2.3882,-2.3891,-2.3864,-2.3871,-2.3883,-2.3902,-2.3896,-2.3914,-2.3924,-2.3901,-2.3938,-2.3927,-2.3912,-2.3918,-2.3918,-2.3845,-2.3872,-2.3842,-2.3792,-2.3772,-2.3763,-2.3755,-2.3729,-2.3719,-2.3836,-2.3836,-2.3836,0,-2.3961,-2.3975,-2.3965,-2.3967,-2.3974,-2.3961,-2.4011,-2.3995,-2.3986,-2.4034,-2.4011,-2.4021,-2.403,-2.3996,-2.3981,-2.4002,-2.3919,-2.395,-2.3943,-2.3942,-2.3924,-2.3913,-2.3903,-2.4034,-2.4034,-2.4035,0,0,-2.4001,-2.3989,-2.4014,-2.398,-2.3982,-2.401,-2.4006,-2.4028,-2.4035,-2.4037,-2.4051,-2.4057,-2.4049,-2.4043,-2.4036,-2.3995,-2.3999,-2.3973,-2.3964,-2.3956,-2.395,-2.393,-2.3919,-2.4037,-2.4037,-2.4037,0,0,-2.4019,-2.4048,-2.407,-2.4033,-2.404,-2.4062,-2.4039,-2.4066,-2.4063,-2.4069,-2.4104,-2.4107,-2.4075,-2.4084,-2.4109,-2.4051,-2.409,-2.4085,-2.4046,-2.4035,-2.4026,-2.4024,-2.4161,0,0,0,0,0,-2.4087,-2.4045,-2.4064,-2.4063,-2.4063,-2.4051,-2.4051,-2.408,-2.4108,-2.4089,-2.4106,-2.4135,-2.4105,-2.4129,-2.4126,-2.4097,-2.4065,-2.406,-2.4055,-2.3996,-2.3984,-2.3974,0,0,0,0,0,0,-2.4086,-2.4084,-2.4066,-2.4085,-2.4086,-2.4053,-2.4106,-2.4113,-2.4111,-2.4117,-2.4131,-2.4136,-2.4159,-2.4132,-2.4129,-2.4101,-2.4162,-2.4063,-2.4059,-2.4055,-2.3992,-2.3982,-2.3974,0,0,0,0,0,-2.4086,-2.4085,-2.4078,-2.4086,-2.4087,-2.4115,-2.4108,-2.4114,-2.4113,-2.4137,-2.4142,-2.4134,-2.4158,-2.4157,-2.4131,-2.4101,-2.4164,-2.4163,-2.406,-2.4057,-2.4054,-2.3987,0,0,0,0,0,0,-2.4086,-2.409,-2.4079,-2.408,-2.4104,-2.4117,-2.412,-2.4115,-2.4133,-2.4138,-2.4142,-2.4146,-2.4156,-2.4156,-2.4155,-2.41,-2.4166,-2.4165,-2.4164,-2.4058,-2.4055,-2.4053,0,0,0,0,0,0,-2.4091,-2.409,-2.408,-2.41,-2.4104,-2.4119,-2.4122,-2.4103,-2.4133,-2.4137,-2.4142,-2.4143,-2.4157,-2.4155,-2.4155,-2.4124,-2.4168,-2.4166,-2.4166,-2.4165,-2.4056,-2.4054,0,0,0,0,0,0,-2.4091,-2.4091,-2.41,-2.4103,-2.4107,-2.4122,-2.4103,-2.4102,-2.4152,-2.4136,-2.4157,-2.416,-2.4154,-2.4155,-2.4154,-2.4123,-2.4124,-2.4168,-2.4167,-2.4166,-2.4166,0,0,0,0,0,0,0,-2.4091,-2.4087,-2.4072,-2.4106,-2.4109,-2.4091,-2.4091,-2.4092,-2.4152,-2.4155,-2.4157,-2.4159,-2.4174,-2.4173,-2.4172,-2.4122,0,0,-2.4168,-2.4167,0,0,0,0,0,0,0,0,-2.4088,-2.4087,-2.4072,-2.4072,-2.4073,-2.4091,-2.4091,-2.4091,-2.4153,-2.4155,-2.4156,-2.4158,-2.4174,-2.4173,-2.4172,0,0,0,0,0,0,0,0,0,0,0,0,0,0,0,-2.4072,-2.4072,0,-2.4091,-2.4091,-2.4091,-2.4153,-2.4154,-2.4156,-2.4157,-2.4173,-2.4173,-2.4172,0,0,0,0,0,0,0,0,0,0,0,0,0,0,0,0,0,0,0,0,0,0,0,0,0,0,0,0,0,0,0,0,0,0,0,0,0,0,0,0,0,0,0,0,0,0,0,0,0,0,0,0,0,0,0,0,0,0,0,0,0,0,0,0,0,0,0,0,0]}]]]